Location: Eckley Miners' Village
(40.9930°N, 75.8630°W)
Time: 01:52:56
(UTC-04:00)

Vanguard 1 Rocket - Pass Details

Date: 07 March 2026
Orbit: 654 x 4213 km, 34.3° (Epoch: 18 April)

Event Time Altitude Azimuth Distance (km) Brightness Sun altitude
Rises 15:05:54 0° 268° (W) 4,152 11.5 29.6°
Reaches altitude 10° 15:08:53 10° 254° (WSW) 3,560 11.7 29.1°
Maximum altitude 15:16:10 25° 203° (SSW) 3,431 11.7 28.0°
Drops below altitude 10° 15:27:39 10° 157° (SSE) 5,784 11.7 26.3°
Sets 15:34:33 0° 147° (SSE) 7,431 12.1 25.2°
